Printer-friendly version

IAU Minor Planet Center

Minor Planet Center

MPEC 2008-D26 : 2008 DE

The following Minor Planet Electronic Circular may be linked-to from your own Web pages, but must not otherwise be redistributed electronically.


Read MPEC 2008-D25 Read MPEC 2008-D27


M.P.E.C. 2008-D26                                Issued 2008 Feb. 22, 19:34 UT

     The Minor Planet Electronic Circulars contain information on unusual
         minor planets and routine data on comets.  They are published
   on behalf of Commission 20 of the International Astronomical Union by the
          Minor Planet Center, Smithsonian Astrophysical Observatory,
                          Cambridge, MA 02138, U.S.A.

             Prepared using the Tamkin Foundation Computer Network

                              MPC@CFA.HARVARD.EDU
          URL http://www.cfa.harvard.edu/iau/mpc.html  ISSN 1523-6714

                                    2008 DE

Observations:
     K08D00E  C2008 02 12.30854 12 59 54.27 +41 11 35.0          19.6 V ED026703
     K08D00E  C2008 02 12.31349 12 59 54.74 +41 11 42.0          20.4 V ED026703
     K08D00E  C2008 02 12.31847 12 59 55.35 +41 11 49.0          19.9 V ED026703
     K08D00E  C2008 02 12.32341 12 59 55.93 +41 11 56.1          20.0 V ED026703
     K08D00E* C2008 02 19.32635 13 13 50.30 +43 48 54.1          20.0 V ED026703
     K08D00E  C2008 02 19.33243 13 13 51.20 +43 49 05.3          19.5 V ED026703
     K08D00E  C2008 02 19.33849 13 13 51.92 +43 49 11.3          20.0 V ED026703
     K08D00E  C2008 02 19.34455 13 13 52.57 +43 49 21.3          19.3 V ED026703
     K08D00E  C2008 02 19.36660 13 13 55.10 +43 49 50.5          19.9 V ED026703
     K08D00E  C2008 02 19.37512 13 13 56.02 +43 50 03.4                 ED026703
     K08D00E  C2008 02 19.37926 13 13 56.48 +43 50 10.2          19.5 V ED026703
     K08D00E  C2008 02 19.43410 13 14 02.34 +43 51 26.4          19.3 V ED026703
     K08D00E  C2008 02 19.43946 13 14 02.95 +43 51 35.3          20.1 V ED026703
     K08D00E  C2008 02 19.44496 13 14 03.73 +43 51 40.6          20.1 V ED026703
     K08D00E  C2008 02 19.45071 13 14 04.52 +43 51 48.4          19.5 V ED026703
     K08D00E  C2008 02 21.26292413 17 40.25 +44 33 32.9          19.2 V ED026H55
     K08D00E  C2008 02 21.26605413 17 40.66 +44 33 37.4          19.5 V ED026H55
     K08D00E  C2008 02 21.26917413 17 40.99 +44 33 41.9          19.6 V ED026H55

Observer details:
703 Catalina Sky Survey.  Observers A. Boattini, R. E. Hill.  Measurers
    E. C. Beshore, A. Boattini, G. J. Garradd, A. R. Gibbs, A. D. Grauer,
    R. E. Hill, R. A. Kowalski, S. M. Larson, R. H. McNaught.  0.68-m Schmidt
    + CCD.
H55 Astronomical Research Observatory, Charleston.  Observer R. Holmes.
    Measurer K. Kelley.  0.81-m f/4.0 astrograph + CCD.

Orbital elements:
2008 DE                                             PHA, Earth MOID = 0.0048 AU
Epoch 2008 May 14.0 TT = JDT 2454600.5                  MPC
M   0.45264              (2000.0)            P               Q
n   0.43795487     Peri.  178.94238     -0.57243849     +0.79220537
a   1.7173144      Node    56.10183     -0.75414559     -0.40744922
e   0.4139612      Incl.   14.76108     -0.32183630     -0.45430803
P   2.25           H   19.3           G   0.15           U   8
Residuals in seconds of arc
080212 703  0.6+  0.5-    080219 703  0.0   0.9-    080219 703  0.9-  1.5+
080212 703  0.5-  0.2-    080219 703  0.3-  0.5+    080219 703  1.1+  0.8-
080212 703  0.1-  0.1+    080219 703  0.7+  1.6-    080219 703 (2.8+  0.9-)
080212 703  0.1+  0.5+    080219 703  0.5+  0.7-    080221 H55  0.3-  0.0
080219 703 (2.9-  0.9-)   080219 703  0.5+  0.3+    080221 H55  0.3+  0.0
080219 703  0.5-  1.7+    080219 703  1.1-  0.0     080221 H55  0.1+  0.0

Ephemeris:
2008 DE                  a,e,i = 1.72, 0.41, 15                  q = 1.0064
Date    TT    R. A. (2000) Decl.     Delta      r     Elong.  Phase     V
2008 02 14    13 03.25   +41 48.7    0.496    1.355   129.0    34.5    19.9
2008 02 24    13 23.06   +45 37.3    0.427    1.297   128.0    37.0    19.5
2008 03 05    13 42.71   +49 32.0    0.366    1.240   125.2    40.9    19.2
2008 03 15    14 02.63   +53 16.4    0.311    1.185   121.1    45.9    18.9
2008 03 25    14 24.46   +56 35.0    0.259    1.136   116.1    52.0    18.6
2008 04 04    14 51.75   +59 18.3    0.208    1.092   110.9    58.9    18.2
2008 04 14    15 33.11   +61 08.2    0.155    1.055   105.4    66.4    17.7

2008 04 24    16 51.88   +60 39.5    0.103    1.028    99.5    74.8    17.0
2008 04 25    17 03.49   +60 16.2    0.0975   1.026    98.9    75.7    16.9
2008 04 26    17 16.00   +59 45.7    0.0924   1.024    98.2    76.7    16.9
2008 04 27    17 29.43   +59 06.1    0.0873   1.022    97.5    77.7    16.8
2008 04 28    17 43.80   +58 15.6    0.0824   1.020    96.7    78.7    16.7
2008 04 29    17 59.11   +57 11.4    0.0775   1.018    96.0    79.7    16.6
2008 04 30    18 15.31   +55 50.6    0.0727   1.016    95.2    80.8    16.5
2008 05 01    18 32.33   +54 09.5    0.0681   1.015    94.3    81.9    16.4
2008 05 02    18 50.05   +52 03.9    0.0637   1.014    93.4    83.0    16.3
2008 05 03    19 08.30   +49 28.9    0.0595   1.012    92.4    84.2    16.1
2008 05 04    19 26.88   +46 19.4    0.0556   1.011    91.4    85.5    16.0
2008 05 05    19 45.57   +42 30.6    0.0520   1.010    90.3    86.8    16.0
2008 05 06    20 04.14   +37 58.6    0.0489   1.009    89.1    88.1    15.9
2008 05 07    20 22.36   +32 42.1    0.0464   1.009    88.0    89.4    15.8
2008 05 08    20 40.05   +26 43.6    0.0445   1.008    86.8    90.6    15.8
2008 05 09    20 57.04   +20 11.3    0.0433   1.007    85.8    91.7    15.7
2008 05 10    21 13.21   +13 18.4    0.0429   1.007    84.9    92.6    15.8
2008 05 11    21 28.48   +06 22.1    0.0433   1.007    84.3    93.3    15.8
2008 05 12    21 42.81   -00 20.5    0.0445   1.006    83.8    93.6    15.9
2008 05 13    21 56.20   -06 35.9    0.0465   1.006    83.7    93.7    16.0
2008 05 14    22 08.66   -12 15.5    0.0490   1.006    83.7    93.6    16.1
2008 05 15    22 20.23   -17 16.1    0.0521   1.007    83.8    93.2    16.2
2008 05 16    22 30.96   -21 38.4    0.0557   1.007    84.1    92.7    16.3
2008 05 17    22 40.89   -25 25.4    0.0596   1.007    84.5    92.1    16.5
2008 05 18    22 50.10   -28 41.1    0.0638   1.008    85.0    91.4    16.6
2008 05 19    22 58.62   -31 29.9    0.0683   1.009    85.4    90.7    16.7
2008 05 20    23 06.53   -33 55.7    0.0729   1.009    85.9    89.9    16.8
2008 05 21    23 13.86   -36 02.1    0.0777   1.010    86.5    89.1    16.9
2008 05 22    23 20.68   -37 52.2    0.0826   1.011    87.0    88.4    17.0
2008 05 23    23 27.02   -39 28.5    0.0876   1.012    87.5    87.6    17.1
2008 05 24    23 32.93   -40 53.2    0.0926   1.014    88.0    86.8    17.2

Timothy B. Spahr             (C) Copyright 2008 MPC           M.P.E.C. 2008-D26

Read MPEC 2008-D25 Read MPEC 2008-D27


Our Web policy. Index to the CBAT/MPC/ICQ pages.


Valid HTML 4.01!